Location: Bottenau
(48.5138°N, 8.0462°E)
Time: 16:52:45
(UTC+00:00)

ATLAS 5 CENTAUR R/B - Pass Details

Date: 18 April 2021
Orbit: 256 x 14172 km, 60.8° (Epoch: 06 May)

Event Time Altitude Azimuth Distance (km) Brightness Sun altitude
Rises 19:27:54 0° 308° (NW) 2,027 6.8 -10.5°
Reaches altitude 10° 19:29:46 10° 298° (WNW) 1,056 4.9 -10.8°
Maximum altitude 19:31:33 35° 227° (SW) 457 1.6 -11.0°
Enters shadow 19:33:08 15° 162° (SSE) 1,009 2.7 -11.3°
